www.pogodaiklimat.ru

Погода и климат >> Архив погоды >> Саудовская Аравия >> Медина


ПОГОДА в Медине

  • Прогноз погоды в Медине
  • Монитор погоды в Медине

АРХИВ ПОГОДЫ в Медине

Время (UTC), дата Ветер
(напр.,м/с)
 
Видим.   Явления Облачность Т
(С)
Тd
(С)
f
(%)
Тe
(С)
Тes
(С)
Комфортность P
(гПа)
Po
(гПа)
Тmin
(С)
Tmax
(С)
R
(мм)
R24
(мм)
S
(см)
18 17.06 СЗ 3 10 км 1/0
[Ac trans]
+37.5 -4.0 7 +33 +33 жарко 1004.1 936.8 +42.0
21 17.06 СЗ 4 10 км ясно +35.2 -2.0 9 +31 +31 жарко 1004.9 937.7
00 18.06 С 2 10 км ясно +32.4 -1.0 12 +29 +29 жарко 1004.1 936.8
03 18.06 штиль 0 10 км ясно +29.2 -2.0 13 +26 +26 жарко 1005.5 937.8
06 18.06 З 2 10 км 4/0
[Ac trans]
+34.5 -8.0 6 +30 +39 жарко 1006.7 939.1 +29.0
09 18.06 СЗ 5 10 км ясно +38.3 -7.0 5 +34 +45 очень
жарко
1005.7 938.2
12 18.06 З 4 10 км ясно +40.3 -6.0 5 +36 +47 очень
жарко
1004.2 936.8
15 18.06 З 7 10 км ясно +40.7 -5.0 5 +36 +37 очень
жарко
1003.0 935.6
18 18.06 СЗ 3 10 км ясно +36.9 -5.0 7 +33 +33 жарко 1003.9 936.6 +42.1
21 18.06 штиль 0 10 км ясно +33.0 -5.0 8 +29 +29 жарко 1004.1 936.8
00 19.06 СЗ 3 10 км ясно +31.4 +1.0 14 +28 +28 жарко 1003.6 936.2
03 19.06 С 2 10 км ясно +28.9 +2.0 18 +27 +27 жарко 1004.5 936.7
06 19.06 СЗ 3 10 км ясно +35.1 +2.0 12 +32 +41 жарко 1004.6 937.0 +28.8
09 19.06 ЮЗ 4 10 км ясно +39.8 +2.0 10 +36 +53 опасность
солнечного
удара
1003.5 936.3
12 19.06 ЮЗ 5 10 км ясно +41.0 -1.0 7 +37 +45 очень
жарко
1001.9 934.7
15 19.06 СЗ 6 10 км ясно +41.4 -2.0 7 +37 +38 очень
жарко
1001.1 933.7
18 19.06 СЗ 4 10 км ясно +38.6 -2.0 8 +35 +35 очень
жарко
1002.1 935.0 +41.5
21 19.06 С 6 10 км ясно +35.6 0.0 10 +32 +32 жарко 1002.9 936.0
00 20.06 С 4 10 км ясно +32.7 -1.0 11 +29 +29 жарко 1003.0 935.9
03 20.06 С 6 10 км ясно +31.3 -2.0 12 +28 +28 жарко 1004.8 937.3
06 20.06 штиль 0 10 км ясно +35.6 -4.0 8 +32 +46 жарко 1005.7 938.3 +31.2
09 20.06 СВ 6 10 км ясно +40.0 -3.0 7 +36 +44 очень
жарко
1003.9 936.9
12 20.06 С 3 10 км ясно +42.7 -3.0 6 +39 +51 опасность
солнечного
удара
1002.1 935.1
15 20.06 С 3 10 км ясно +42.4 -4.0 5 +38 +39 очень
жарко
1001.6 934.7
18 20.06 С 3 10 км ясно +38.3 -4.0 7 +34 +34 очень
жарко
1003.1 936.1 +43.8
21 20.06 СВ 5 10 км ясно +35.5 -2.0 9 +32 +32 жарко 1004.0 937.2
00 21.06 штиль 0 10 км ясно +31.5 -4.0 10 +28 +28 жарко 1004.2 937.0
03 21.06 штиль 0 10 км ясно +28.6 -5.0 11 +25 +26 комфорт 1005.7 937.9
06 21.06 ЮВ 1 10 км ясно +35.2 -5.0 7 +31 +44 жарко 1005.8 938.4 +28.0
09 21.06 ЮЗ 2 10 км 4/0
[Cs]
+39.5 -4.0 6 +35 +55 опасность
солнечного
удара
1005.0 937.7
12 21.06 С 3 10 км ясно +42.1 -4.0 6 +38 +51 опасность
солнечного
удара
1002.6 935.5
15 21.06 З 2 10 км ясно +42.8 -4.0 5 +39 +40 очень
жарко
1000.7 933.7
18 21.06 СЗ 3 10 км ясно +40.1 -6.0 5 +36 +36 очень
жарко
1000.9 934.1 +43.5
21 21.06 З 6 10 км ясно +38.1 -2.0 8 +34 +34 очень
жарко
1000.9 934.5
00 22.06 штиль 0 10 км ясно +32.8 -2.0 11 +29 +29 жарко 1001.2 934.3
03 22.06 СВ 2 10 км ясно +31.7 -3.0 10 +28 +28 жарко 1002.5 935.5
06 22.06 В 2 10 км ясно +37.3 -2.0 8 +33 +44 жарко 1003.3 936.3 +31.0
09 22.06 С 5 10 км ясно +41.1 -3.0 6 +37 +48 очень
жарко
1002.0 935.3
12 22.06 ЮЗ 4 10 км ясно +43.3 -3.0 6 +39 +50 очень
жарко
1000.7 933.9
15 22.06 З 5 10 км ясно +43.0 -3.0 6 +39 +40 очень
жарко
999.4 932.7
18 22.06 СЗ 4 10 км ясно +39.8 -5.0 6 +36 +36 очень
жарко
999.8 933.4 +43.6
21 22.06 СЗ 5 10 км ясно +37.9 -3.0 7 +34 +34 очень
жарко
1000.4 934.0
00 23.06 СЗ 3 10 км ясно +33.7 -4.0 9 +30 +30 жарко 1000.1 933.5
03 23.06 С 4 10 км ясно +32.2 -4.0 9 +28 +28 жарко 1001.3 934.3
06 23.06 СВ 6 10 км ясно +38.6 -2.0 8 +35 +39 очень
жарко
1001.8 935.0 +31.0
09 23.06 В 6 10 км ясно +41.6 -2.0 7 +38 +46 очень
жарко
1001.1 934.4
12 23.06 С 3 10 км ясно +43.5 -3.0 6 +40 +53 опасность
солнечного
удара
999.7 933.1
15 23.06 Ю 2 10 км ясно +42.6 -4.0 5 +38 +40 очень
жарко
998.7 932.0
18 23.06 З 2 10 км ясно +41.0 -2.0 7 +37 +37 очень
жарко
999.1 932.8 +43.5
21 23.06 С 2 10 км ясно +39.3 -4.0 6 +35 +35 очень
жарко
1000.4 934.3
00 24.06 С 1 10 км ясно +35.1 -2.0 9 +31 +31 жарко 1000.2 933.7
03 24.06 С 2 10 км ясно +30.4 -3.0 11 +27 +27 жарко 1002.4 935.2
06 24.06 ЮВ 4 10 км ясно +38.0 -1.0 9 +34 +41 очень
жарко
1002.5 935.8 +30.0
09 24.06 СВ 4 10 км ясно +41.6 0.0 8 +38 +52 опасность
солнечного
удара
1001.7 935.0
12 24.06 С 5 10 км ясно +43.3 -1.0 6 +39 +48 очень
жарко
999.8 933.3
15 24.06 штиль 0 10 км ясно +43.3 -1.0 6 +39 +41 очень
жарко
999.2 932.6

 

Местоположение метеостанции Медина (Саудовская Аравия): широта 24.55 долгота 39.70 высота над уровнем моря 636 м.

В архиве по умолчанию представлена погода в Медине за последнюю неделю. Архивные данные за месяц целиком и за предыдущие месяцы, начиная с января 2011 года, Вы можете получить, выбрав интересующий диапазон дат из раскрывающегося списка и нажав кнопку "Ввод!".


*Определитесь, кто Вы:
робот инопланетянин человек

Внимание! Время в таблицах - всемирное. Для получения местного времени необходимо прибавить поправку, которая равна 3 ч.

Смотрите также архив погоды в соседних городах и на ближайших метеорологических станциях:

Погода в Янбу (Саудовская Аравия) (172 км)
Погода в Аль-Уле (Саудовская Аравия) (267 км)
Погода в Джидде (Саудовская Аравия) (321 км)
Погода в Мекке (Саудовская Аравия) (347 км)
Погода в Мине (Саудовская Аравия) (349 км)
Погода в Аль-Таифе (Саудовская Аравия) (352 км)
Погода в Арафате (Саудовская Аравия) (359 км)
Погода в Эль-Ваджхе (Саудовская Аравия) (372 км)
Погода в Хаиле (Саудовская Аравия) (377 км)
Погода в Шалатейне (Египет) (448 км)

Пояснения к столбцам:

Ветер - указаны скорость ветра в м/с - средняя за 10 мин, порывы в срок и между сроками (в фигурных скобках) и направление, откуда дует ветер: С - северный, СВ - северо-восточный, В - восточный, ЮВ - юго-восточный, Ю - южный, ЮЗ - юго-западный, З - западный, СЗ - северо-западный.
Видимость - горизонтальная дальность видимости в метрах или километрах. При видимости от 1 до 10 км при отсутствии осадков обычно наблюдается дымка, при ухудшении видимости до 1 км и менее - туман. В сухую погоду видимость может ухудшаться дымом, пылью или мглою.
Явления - указаны атмосферные явления, наблюдавшиеся в срок или в последний час перед сроком; фигурными скобками обозначены явления, наблюдавшиеся между сроками (за 1-3 часа до срока); квадратными скобками обозначены град или гололедные отложения с указанием их диаметра в мм.
Облачность - указаны через наклонную черту общая и нижняя облачность в баллах и высота нижней границы облаков в метрах; квадратными скобками обозначены формы облаков: Ci - перистые, Cs - перисто-слоистые, Cc - перисто-кучевые, Ac - высококучевые, As - высокослоистые, Sc - слоисто-кучевые, Ns - слоисто-дождевые, Cu - кучевые, Cb - кучево-дождевые. Подробнее классификацию облаков см. в Атласе облаков (PDF).
T - Температура воздуха - температура, измеренная на высоте 2 м над землей.
Td - Температура точки росы - температура, при понижении до которой содержащийся в воздухе водяной пар достигнет насыщения.
f - Относительная влажность воздуха - влажноcть воздуха, измеренная на высоте 2 м над землей.
Te - Эффективная температура - температура, которую ощущает одетый по сезону человек в тени. Характеристика душности погоды. При расчете учитывается влияние влажности воздуха и скорости ветра на теплоощущения человека.
Tes - Эффективная температура на солнце - температура, которую ощущает человек, с поправкой на солнечный нагрев. Характеристика знойности погоды. Зависит от высоты солнца над горизонтом, облачности и скорости ветра. Ночью, в пасмурную погоду, а также при ветре 12 м/с и более поправка равна нулю.
P - Атмосферное давление - приведенное к уровню моря атмосферное давление.
Po - Атмосферное давление - измеренное на уровне метеостанции атмосферное давление.
Tmin - Минимальная температура - минимум температуры воздуха на высоте 2 м над землей.
Tmax - Максимальная температура - максимум температуры воздуха на высоте 2 м над землей.
R - Количество осадков - Количество выпавших осадков за период времени, мм. При наведении курсора мыши на число - период времени, за который выпало указанное количество осадков.
R24 - Количество осадков - Количество выпавших осадков за 24 часа, мм.
S - Снежный покров - Высота снежного покрова, см. При наведении курсора мыши на число - состояние снежного покрова и степень покрытия местности в баллах.